Weather History for Newport, VT

Change the Weather History Date:

Saturday, March 8, 2014

  Actual Average Record
Temperature  
Mean Temperature 25 °F -  
Max Temperature 33 °F 35 °F 60 °F (2012)
Min Temperature 15 °F 11 °F -21 °F (1989)
Degree Days  
Heating Degree Days 40    
Moisture  
Dew Point 12 °F    
Average Humidity 52    
Maximum Humidity 76    
Minimum Humidity 31    
Precipitation  
Precipitation 0.00 in - - ()
Sea Level Pressure  
Sea Level Pressure 29.83 in    
Wind  
Wind Speed 6 mph (West)    
Max Wind Speed 12 mph    
Max Gust Speed 17 mph    
Visibility 10 miles    
Events      
Averages and records for this station are not official NWS values.
T = Trace of Precipitation, MM = Missing Value Source: NWS Daily Summary

Daily Weather History Graph

Daily Weather History Graph

Search for Another Location

Airport:

Trip Planner

Search our weather history database for the weather conditions in past years. The results will help you decide how hot, cold, wet, or windy it might be!

Date:

Astronomy

Mar. 08, 2014 Rise Set
Actual Time 6:14 AM EST 5:45 PM EST
Civil Twilight 5:45 AM EST 6:15 PM EST
Nautical Twilight 5:11 AM EST 6:49 PM EST
Astronomical Twilight 4:36 AM EST 7:23 PM EST
Moon 10:37 AM EST (3/8) 12:57 AM EST (3/8)
Length of Visible Light 12h 30m
Length of Day
11h 31m
First Quarter, 51% of the Moon is Illuminated
Mar 8
First Quarter
Mar 16
Full
Mar 23
Last Quarter
Mar 30
New
Apr 7
First Quarter

Hourly Weather History & Observations

Time (EST) Temp. Windchill Dew Point Humidity Pressure Visibility Wind Dir Wind Speed Gust Speed Precip Events Conditions
12:15 AM 27.7 °F 22.4 °F 0.5 °F 31% 29.87 in 10.0 mi SSE 4.6 mph - N/A   Clear
12:35 AM 26.1 °F 19.4 °F 2.1 °F 36% 29.87 in 10.0 mi SSE 5.8 mph - N/A   Clear
12:55 AM 25.7 °F 19.0 °F 2.5 °F 37% 29.87 in 10.0 mi SSE 5.8 mph - N/A   Clear
1:15 AM 26.1 °F 19.4 °F 2.5 °F 36% 29.86 in 10.0 mi SSE 5.8 mph - N/A   Clear
1:35 AM 25.5 °F 18.7 °F 5.5 °F 43% 29.85 in 10.0 mi SSE 5.8 mph - N/A   Mostly Cloudy
1:55 AM 27.3 °F 22.0 °F 3.2 °F 36% 29.84 in 10.0 mi South 4.6 mph - N/A   Mostly Cloudy
2:15 AM 29.3 °F 24.3 °F 1.9 °F 31% 29.84 in 10.0 mi South 4.6 mph - N/A   Mostly Cloudy
2:35 AM 28.9 °F 23.9 °F 2.8 °F 33% 29.83 in 10.0 mi South 4.6 mph - N/A   Overcast
2:55 AM 28.9 °F 22.8 °F 3.0 °F 33% 29.82 in 10.0 mi South 5.8 mph - N/A   Mostly Cloudy
3:15 AM 28.0 °F 20.8 °F 3.0 °F 34% 29.80 in 10.0 mi SSW 6.9 mph - N/A   Scattered Clouds
3:35 AM 26.6 °F 18.2 °F 3.7 °F 38% 29.80 in 10.0 mi SSW 8.1 mph - N/A   Clear
3:55 AM 26.8 °F 20.2 °F 3.2 °F 36% 29.79 in 10.0 mi South 5.8 mph - N/A   Clear
4:15 AM 24.4 °F 15.6 °F 5.4 °F 44% 29.80 in 10.0 mi SSW 8.1 mph - N/A   Scattered Clouds
4:35 AM 27.0 °F 18.7 °F 5.5 °F 40% 29.80 in 10.0 mi South 8.1 mph - N/A   Mostly Cloudy
4:55 AM 27.9 °F 20.6 °F 7.3 °F 42% 29.79 in 10.0 mi SSW 6.9 mph - N/A   Overcast
5:15 AM 26.1 °F 17.6 °F 8.2 °F 47% 29.79 in 10.0 mi SW 8.1 mph - N/A   Overcast
5:35 AM 25.9 °F 17.4 °F 9.1 °F 49% 29.78 in 10.0 mi SW 8.1 mph - N/A   Overcast
5:55 AM 26.6 °F 19.1 °F 8.2 °F 46% 29.78 in 10.0 mi SW 6.9 mph - N/A   Overcast
6:15 AM 26.6 °F 18.2 °F 8.6 °F 47% 29.78 in 10.0 mi SSW 8.1 mph - N/A   Mostly Cloudy
6:35 AM 27.1 °F 19.7 °F 7.7 °F 44% 29.78 in 10.0 mi South 6.9 mph - N/A   Mostly Cloudy
6:55 AM 26.8 °F - 9.0 °F 47% 29.77 in 10.0 mi Calm Calm - N/A   Mostly Cloudy
7:15 AM 27.1 °F - 8.6 °F 46% 29.78 in 10.0 mi Calm Calm - N/A   Mostly Cloudy
7:35 AM 27.9 °F 24.0 °F 10.9 °F 49% 29.79 in 10.0 mi WSW 3.5 mph - N/A   Overcast
7:55 AM 28.4 °F - 9.7 °F 46% 29.80 in 10.0 mi Calm Calm - N/A   Overcast
8:15 AM 28.2 °F - 13.6 °F 54% 29.80 in 10.0 mi Calm Calm - N/A   Overcast
8:35 AM 28.9 °F - 15.1 °F 56% 29.80 in 10.0 mi Calm Calm - N/A   Overcast
8:55 AM 29.7 °F - 16.7 °F 59% 29.80 in 10.0 mi Calm Calm - N/A   Overcast
9:15 AM 32.4 °F 24.6 °F 21.6 °F 64% 29.80 in 10.0 mi NW 9.2 mph - N/A   Overcast
9:35 AM 33.4 °F 26.6 °F 25.5 °F 73% 29.80 in 10.0 mi NW 8.1 mph - N/A   Overcast
9:55 AM 32.9 °F 25.3 °F 25.2 °F 73% 29.80 in 7.0 mi NW 9.2 mph - N/A   Overcast
10:15 AM 32.2 °F 25.0 °F 24.8 °F 74% 29.81 in 7.0 mi WNW 8.1 mph - N/A   Overcast
10:35 AM 32.0 °F 23.6 °F 24.6 °F 74% 29.81 in 7.0 mi WNW 10.4 mph - N/A   Overcast
10:55 AM 32.0 °F 24.8 °F 24.8 °F 75% 29.81 in 7.0 mi WNW 8.1 mph - N/A   Overcast
11:15 AM 32.0 °F 24.8 °F 25.2 °F 76% 29.82 in 7.0 mi WNW 8.1 mph - N/A   Overcast
11:35 AM 32.0 °F 24.2 °F 25.0 °F 75% 29.82 in 7.0 mi NW 9.2 mph - N/A   Overcast
11:55 AM 32.0 °F 25.6 °F 24.8 °F 75% 29.82 in 10.0 mi WNW 6.9 mph - N/A   Overcast
12:15 PM 32.0 °F 24.8 °F 24.6 °F 74% 29.81 in 7.0 mi NW 8.1 mph - N/A   Overcast
12:35 PM 31.8 °F 23.9 °F 24.6 °F 75% 29.81 in 7.0 mi NW 9.2 mph - N/A   Unknown
12:55 PM 31.8 °F 24.6 °F 24.1 °F 73% 29.80 in 10.0 mi WNW 8.1 mph - N/A   Overcast
1:15 PM 31.5 °F 24.2 °F 23.9 °F 74% 29.81 in 7.0 mi NW 8.1 mph - N/A   Overcast
1:35 PM 31.3 °F 23.9 °F 23.0 °F 71% 29.80 in 7.0 mi NW 8.1 mph - N/A   Overcast
1:55 PM 31.1 °F 23.7 °F 23.5 °F 74% 29.81 in 7.0 mi NW 8.1 mph - N/A   Overcast
2:15 PM 31.8 °F 24.6 °F 23.5 °F 71% 29.81 in 7.0 mi NW 8.1 mph - N/A   Overcast
2:35 PM 32.0 °F 23.6 °F 21.7 °F 66% 29.81 in 10.0 mi WNW 10.4 mph - N/A   Overcast
2:55 PM 31.5 °F 22.3 °F 21.2 °F 66% 29.82 in 10.0 mi NW 11.5 mph 17.3 mph N/A   Overcast
3:15 PM 31.5 °F 23.5 °F 20.3 °F 63% 29.82 in 10.0 mi NW 9.2 mph - N/A   Overcast
3:35 PM 32.0 °F 23.6 °F 18.9 °F 58% 29.82 in 10.0 mi WNW 10.4 mph - N/A   Scattered Clouds
3:55 PM 32.0 °F 24.8 °F 15.4 °F 51% 29.82 in 10.0 mi WNW 8.1 mph - N/A   Clear
4:15 PM 32.2 °F 25.0 °F 13.8 °F 47% 29.82 in 10.0 mi WNW 8.1 mph - N/A   Clear
4:35 PM 32.0 °F 24.8 °F 11.5 °F 43% 29.83 in 10.0 mi NW 8.1 mph 16.1 mph N/A   Clear
4:55 PM 32.0 °F 23.0 °F 9.5 °F 39% 29.83 in 10.0 mi NW 11.5 mph 16.1 mph N/A   Clear
5:15 PM 31.1 °F 22.4 °F 9.3 °F 40% 29.84 in 10.0 mi NW 10.4 mph - N/A   Clear
5:35 PM 30.0 °F 21.1 °F 8.2 °F 40% 29.84 in 10.0 mi NNW 10.4 mph - N/A   Clear
5:55 PM 28.9 °F 19.2 °F 6.8 °F 39% 29.85 in 10.0 mi NNW 11.5 mph - N/A   Clear
6:15 PM 28.2 °F 24.4 °F 6.6 °F 40% 29.85 in 10.0 mi NW 3.5 mph - N/A   Clear
6:35 PM 27.9 °F 24.0 °F 6.6 °F 41% 29.86 in 10.0 mi NW 3.5 mph - N/A   Clear
6:55 PM 27.1 °F - 7.0 °F 43% 29.86 in 10.0 mi Calm Calm - N/A   Clear
7:15 PM 26.1 °F 21.9 °F 7.0 °F 44% 29.87 in 10.0 mi West 3.5 mph - N/A   Clear
7:35 PM 26.6 °F - 6.8 °F 43% 29.87 in 10.0 mi Calm Calm - N/A   Clear
7:55 PM 25.9 °F 21.7 °F 6.8 °F 44% 29.87 in 10.0 mi WSW 3.5 mph - N/A   Clear
8:15 PM 24.6 °F 20.3 °F 6.8 °F 47% 29.88 in 10.0 mi West 3.5 mph - N/A   Clear
8:35 PM 25.0 °F 19.3 °F 7.2 °F 47% 29.88 in 10.0 mi West 4.6 mph - N/A   Clear
8:55 PM 23.9 °F 18.0 °F 7.0 °F 49% 29.88 in 10.0 mi West 4.6 mph - N/A   Clear
9:15 PM 24.1 °F 19.7 °F 7.3 °F 49% 29.88 in 10.0 mi West 3.5 mph - N/A   Clear
9:35 PM 23.4 °F 17.4 °F 7.7 °F 51% 29.88 in 10.0 mi West 4.6 mph - N/A   Clear
9:55 PM 22.5 °F - 6.6 °F 51% 29.89 in 10.0 mi Calm Calm - N/A   Clear
10:15 PM 21.4 °F - 8.4 °F 57% 29.89 in 10.0 mi Calm Calm - N/A   Clear
10:40 PM 19.9 °F 14.9 °F 7.2 °F 58% 29.89 in 10.0 mi North 3.5 mph - N/A   Clear
10:55 PM 19.4 °F 14.3 °F 7.7 °F 60% 29.89 in 10.0 mi North 3.5 mph - N/A   Clear
11:15 PM 18.9 °F 12.1 °F 7.3 °F 61% 29.88 in 10.0 mi NNW 4.6 mph - N/A   Clear
11:35 PM 17.8 °F 9.6 °F 6.4 °F 61% 29.89 in 10.0 mi NNW 5.8 mph - N/A   Clear
11:55 PM 15.8 °F 8.6 °F 5.5 °F 64% 29.89 in 10.0 mi NNW 4.6 mph - N/A   Clear